Вернуться в каталог

STARLINK-31963

АктивенСвязьVLEO
NORAD 59893·PAYLOAD·🇺🇸 United States

Запущен May 28, 2024 с Cape Canaveral Space Force Station

Loading…

Ближайшие Пролёты (ближайшие 24 часа)

TLE

СвежийSource: CelesTrak SupGP

Эпоха: Sep 14, 2026, 21:22 UTC

1 59893C 24100J   26257.89076389 -.00031156  00000+0 -11287-2 0  2578
2 59893  43.0003 137.0291 0001307 268.2992   2.3530 15.27588311    13

Отслеживайте STARLINK-31963 в реальном времени с AllMySat

Download on the App Store